Terminal Aerodrome Forecast
Issued by NWS Pittsburgh, PA

Current Version | Previous Version | Graphics & Text | Print | Product List | Glossary On
Versions: 1 2 3 4 5 6 7 8 9 10 11 12 13 14 15 16 17 18 19 20 21 22 23 24 25 26 27 28 29 30 31 32 33
000
FTUS41 KPBZ 151200 AAA
TAFPIT
TAF AMD
KPIT 151242Z 1513/1618 00000KT P6SM FEW250
     FM151500 17005KT P6SM SCT250
     FM160200 27005KT P6SM -RA OVC050
     FM160600 30005KT P6SM -RA BKN015=

USA.gov is the U.S. government's official web portal to all federal, state and local government web resources and services.